2024-247D (62380 NORAD) Tracking and Keplerian Element Data

This shows tracking and keplerian element data for the satellite.

Feedback or suggestion? Click here.




ElementValue
Catalog62380
Name2024-247D
Epoch Orbit687
Epoch Day34.71459743
Epoch Year2025
RAAN122.4891
Inclination44.999
Eccentricity0.0003087
Argument of Perigee258.3221
Mean Anonmoly101.7313
Mean Motion15.19819534
Decay Rate0.00013059
L11 62380U 24247D 25034.71459743 .00013059 00000+0 61025-3 0 9996
L22 62380 44.9990 122.4891 0003087 258.3221 101.7313 15.19819534 6877



Live tracking and technical data element details for 2024-247D (NORAD 62380). 2024-247D can be tracked NOW for your location showing map with azimuth and elevation plus other details from your city location.







IsCatalogInMostPopularTable: catalog: 62380, numindb: 9
Update: records affected: 1



GetName: 62380 2024-247D

Hit Count: updated at: Sun, 18 May 2025 23:10:06 GMT